Sterling, IL

11:55 AM CDT on August 19, 2019 (GMT -0500)
Whiteside County-Bittorf

Weather History for KSQI - July, 2019

Change the Weather History Date:

Sunday, July 21, 2019

  Actual Average Record
Temperature  
Mean Temperature 76 °F -  
Max Temperature 84 °F 81 °F 96 °F (2002)
Min Temperature 70 °F 60 °F 53 °F (2000)
Cooling Degree Days 11    
Growing Degree Days 26 (Base 50)    
Moisture  
Dew Point 70 °F    
Average Humidity 80    
Maximum Humidity 94    
Minimum Humidity 66    
Precipitation  
Precipitation 0.00 in - - ()
Sea Level Pressure  
Sea Level Pressure 29.70 in    
Wind  
Wind Speed 8 mph (NNE)    
Max Wind Speed 12 mph    
Max Gust Speed -    
Visibility 10 miles    
Events      
Averages and records for this station are not official NWS values.
T = Trace of Precipitation, MM = Missing Value Source: NWS Daily Summary

Daily Weather History Graph

Daily Weather History Graph

Search for Another Location

Airport or City:

Astronomy

Jul. 21, 2019 Rise Set
Actual Time 5:42 AM CDT 8:27 PM CDT
Civil Twilight 5:09 AM CDT 9:00 PM CDT
Nautical Twilight 4:28 AM CDT 9:40 PM CDT
Astronomical Twilight 3:41 AM CDT 10:27 PM CDT
Moon 11:18 PM CDT (7/21) 10:05 AM CDT (7/21)
Length of Visible Light 15h 50m
Length of Day
14h 45m
Waning Gibbous, 80% of the Moon is Illuminated
Jul 21
Waning Gibbous
Jul 24
Last Quarter
Jul 31
New
Aug 7
First Quarter
Aug 15
Full

Hourly Weather History & Observations

Time (CDT) Temp. Heat Index Dew Point Humidity Pressure Visibility Wind Dir Wind Speed Gust Speed Precip Events Conditions
12:56 AM 75.9 °F - 71.1 °F 85% 29.48 in 10.0 mi NE 9.2 mph - N/A   Scattered Clouds
1:56 AM 75.0 °F - 71.1 °F 87% 29.48 in 10.0 mi ENE 9.2 mph - N/A   Partly Cloudy
2:24 AM 75.2 °F - 71.6 °F 89% 29.90 in 10.0 mi NE 9.2 mph - N/A   Mostly Cloudy
2:35 AM 75.2 °F - 71.6 °F 89% 29.90 in 10.0 mi NNE 8.1 mph - N/A   Mostly Cloudy
2:56 AM 73.9 °F - 71.1 °F 91% 29.50 in 10.0 mi NE 5.8 mph - N/A   Clear
3:56 AM 73.9 °F - 70.0 °F 87% 29.50 in 10.0 mi NNE 9.2 mph - N/A   Partly Cloudy
4:56 AM 72.0 °F - 70.0 °F 93% 29.51 in 10.0 mi North 6.9 mph - N/A   Partly Cloudy
5:27 AM 71.6 °F - 69.8 °F 94% 29.92 in 10.0 mi Variable 5.8 mph - N/A   Mostly Cloudy
5:56 AM 72.0 °F - 70.0 °F 93% 29.52 in 10.0 mi NE 6.9 mph - N/A   Overcast
6:56 AM 73.0 °F - 70.0 °F 90% 29.53 in 10.0 mi NE 9.2 mph - N/A   Overcast
7:56 AM 73.0 °F - 69.1 °F 87% 29.56 in 10.0 mi ENE 5.8 mph - N/A   Mostly Cloudy
8:26 AM 73.4 °F - 69.8 °F 88% 29.97 in 10.0 mi NNE 5.8 mph - N/A   Overcast
8:56 AM 75.0 °F - 69.1 °F 82% 29.57 in 10.0 mi NNE 5.8 mph - N/A   Overcast
9:14 AM 75.2 °F - 69.8 °F 83% 29.97 in 10.0 mi Variable 6.9 mph - N/A   Overcast
9:22 AM 75.2 °F - 69.8 °F 83% 29.97 in 10.0 mi NE 5.8 mph - N/A   Overcast
9:29 AM 75.2 °F - 69.8 °F 83% 29.97 in 10.0 mi NNE 5.8 mph - N/A   Overcast
9:56 AM 77.0 °F - 70.0 °F 79% 29.57 in 10.0 mi NE 5.8 mph - N/A   Overcast
10:13 AM 75.2 °F - 69.8 °F 83% 29.98 in 10.0 mi North 8.1 mph - N/A   Overcast
10:28 AM 75.2 °F - 69.8 °F 83% 29.98 in 10.0 mi North 4.6 mph - N/A   Overcast
10:56 AM 78.1 °F - 70.0 °F 76% 29.57 in 10.0 mi North 6.9 mph - N/A   Overcast
11:22 AM 80.6 °F 84.6 °F 71.6 °F 74% 29.97 in 10.0 mi NNE 8.1 mph - N/A   Overcast
11:56 AM 79.0 °F - 71.1 °F 77% 29.57 in 10.0 mi ENE 9.2 mph - N/A   Overcast
12:07 PM 80.6 °F 84.6 °F 71.6 °F 74% 29.98 in 10.0 mi NE 11.5 mph - N/A   Overcast
12:56 PM 81.0 °F 84.9 °F 71.1 °F 72% 29.57 in 10.0 mi North 9.2 mph - N/A   Overcast
1:56 PM 80.1 °F 83.6 °F 71.1 °F 74% 29.55 in 10.0 mi NNE 5.8 mph - N/A   Overcast
2:56 PM 81.0 °F 85.2 °F 72.0 °F 74% 29.55 in 10.0 mi NNE 8.1 mph - N/A   Overcast
3:09 PM 82.4 °F 87.2 °F 71.6 °F 70% 29.95 in 10.0 mi NNE 6.9 mph - N/A   Overcast
3:23 PM 82.4 °F 87.2 °F 71.6 °F 70% 29.95 in 10.0 mi NNE 10.4 mph - N/A   Overcast
3:47 PM 82.4 °F 87.2 °F 71.6 °F 70% 29.96 in 10.0 mi NNE 11.5 mph - N/A   Overcast
3:56 PM 82.9 °F 87.5 °F 71.1 °F 67% 29.56 in 10.0 mi North 8.1 mph - N/A   Overcast
4:56 PM 82.0 °F 86.3 °F 71.1 °F 69% 29.57 in 10.0 mi NNE 10.4 mph - N/A   Scattered Clouds
5:56 PM 81.0 °F 84.4 °F 70.0 °F 69% 29.57 in 10.0 mi North 9.2 mph - N/A   Scattered Clouds
6:56 PM 79.0 °F - 66.9 °F 66% 29.59 in 10.0 mi North 6.9 mph - N/A   Clear
7:56 PM 77.0 °F - 66.0 °F 69% 29.59 in 10.0 mi North 6.9 mph - N/A   Clear
8:56 PM 73.9 °F - 64.0 °F 71% 29.60 in 10.0 mi NNE 3.5 mph - N/A   Partly Cloudy
9:56 PM 73.0 °F - 64.9 °F 76% 29.61 in 10.0 mi NNE 3.5 mph - N/A   Clear
10:56 PM 70.0 °F - 64.9 °F 84% 29.61 in 10.0 mi Calm Calm - N/A   Clear
11:56 PM 70.0 °F - 66.0 °F 87% 29.61 in 8.0 mi Calm Calm - N/A   Scattered Clouds